GFSNIL_sfc_temp_276.txt.gz
Temp
71 69 69 69 69 68 69 70 70 70 71 72 73 73 73 72 72 73 72 71 71 71
67 67 66 67 67 66 67 70 68 68 69 70 70 70 71 71 72 72 72 71 71 71
65 65 65 65 64 64 65 65 65 65 66 67 67 68 69 69 70 71 71 71 71 71
63 63 63 62 62 63 63 62 62 62 63 63 64 65 66 66 67 67 68 70 70 70
62 61 61 61 61 62 60 61 60 60 60 60 61 63 62 62 63 63 64 66 67 69
60 60 60 60 60 60 60 59 60 59 58 58 59 61 61 61 60 61 62 63 64 66
58 58 59 59 59 59 59 58 58 58 58 58 59 61 61 61 60 60 62 61 62 63
58 58 59 58 58 59 59 59 58 58 58 58 61 64 60 61 61 61 61 61 61 64
58 58 59 58 58 58 58 58 57 57 57 57 61 61 62 62 59 58 61 60 61 62
58 58 58 58 57 56 56 56 55 55 55 55 56 59 60 61 57 56 58 58 60 63
57 57 57 56 54 54 55 54 54 54 54 54 56 58 58 59 55 55 54 55 57 58
56 56 56 55 54 54 53 53 53 53 52 52 54 56 56 56 55 56 55 56 56 57
56 56 55 55 55 54 53 53 54 54 53 55 52 54 55 55 55 53 54 56 57 58
57 56 56 55 55 54 53 53 52 52 53 53 53 53 54 54 54 54 53 55 55 57

GFSNIL_sfc_temp_279.txt.gz
Temp
68 69 70 71 72 73 72 71 73 76 77 77 78 78 78 78 77 76 74 74 74 75
68 69 69 69 70 71 73 73 72 73 73 74 74 75 77 79 78 76 76 74 73 73
69 70 70 70 69 69 70 70 70 70 71 71 72 73 73 73 73 74 79 80 76 76
69 69 70 70 69 68 69 68 68 68 68 69 70 70 70 70 71 70 70 73 73 74
70 70 70 69 69 70 68 68 67 67 68 68 68 68 68 68 69 68 69 70 70 72
70 70 69 68 68 68 68 67 68 67 66 66 68 67 67 67 66 67 67 68 69 70
68 68 69 68 68 68 67 66 66 66 66 66 66 65 64 64 66 67 67 66 65 68
67 68 67 66 66 67 66 65 65 65 65 66 68 67 63 63 66 65 66 67 68 70
67 66 66 65 65 64 64 64 64 63 64 64 67 60 61 62 65 64 64 65 66 68
66 65 64 64 64 63 63 63 63 63 63 63 63 59 59 61 65 64 63 62 62 64
65 64 64 64 63 63 64 63 63 62 63 64 64 57 58 60 64 64 63 61 59 58
65 64 64 63 63 63 64 63 63 63 62 62 63 56 56 60 65 64 63 62 61 61
65 64 64 63 63 63 64 64 67 65 64 61 63 57 55 58 65 63 65 65 64 61
66 65 64 64 64 64 64 64 64 65 65 65 61 63 55 55 63 63 64 65 64 62

GFSNIL_sfc_temp_285.txt.gz
Temp
80 85 83 82 84 85 84 83 80 79 81 80 80 80 78 80 78 78 78 76 75 78
81 81 79 78 83 85 82 83 79 79 79 79 79 79 77 81 78 76 78 77 76 75
81 81 81 80 78 77 77 77 77 77 78 78 78 77 76 78 80 77 79 75 73 74
82 81 81 80 78 77 77 76 76 76 76 77 76 75 73 74 77 75 75 77 76 75
81 80 80 78 79 78 76 76 75 75 74 71 72 71 72 71 74 72 74 75 73 73
81 80 78 77 77 77 75 75 75 73 73 72 74 72 72 73 73 72 71 72 70 72
77 77 78 77 75 75 74 73 73 73 73 74 73 71 70 71 73 73 75 74 72 70
75 75 74 73 73 73 73 72 72 72 72 73 73 70 66 70 73 72 72 73 72 71
73 73 72 72 72 72 72 71 71 71 70 68 73 62 63 65 73 72 70 68 66 67
72 71 71 71 71 70 70 71 70 71 71 68 67 61 62 64 75 73 72 69 66 68
72 71 71 70 70 70 71 70 70 70 71 71 68 61 61 63 75 73 72 71 69 68
72 71 70 70 70 71 71 72 72 72 71 70 68 60 59 62 74 73 73 72 68 67
72 71 70 70 70 71 72 73 75 73 74 67 71 58 59 61 73 70 74 74 70 61
72 71 71 71 72 72 73 72 72 72 73 74 71 67 58 58 70 69 71 73 73 73

GFSNIL_sfc_temp_291.txt.gz
Temp
73 72 70 72 71 71 70 68 69 69 69 69 69 67 66 65 67 67 66 68 69 69
72 71 69 69 70 69 68 71 68 68 67 66 65 64 63 63 64 65 64 64 64 64
72 72 70 69 67 67 67 67 66 65 65 64 64 64 62 62 64 63 63 64 63 63
71 69 69 67 67 66 65 64 63 63 63 62 61 61 61 62 63 63 66 68 68 66
69 69 67 65 65 65 64 64 64 63 61 60 58 58 58 60 62 62 62 63 61 60
68 66 64 64 64 64 63 62 62 61 58 56 56 56 58 59 60 61 60 59 59 57
64 64 63 63 62 62 61 60 59 58 56 55 55 56 56 57 58 59 58 58 58 57
63 63 62 61 61 61 61 60 58 56 56 55 58 61 57 57 57 58 58 58 59 59
62 61 60 60 59 59 59 59 58 56 55 54 62 64 65 64 57 59 58 57 57 58
61 60 60 60 59 58 58 58 58 57 56 54 54 63 64 67 58 58 57 56 56 59
60 59 59 59 58 58 58 58 57 58 57 56 58 62 63 65 58 58 58 57 56 54
60 59 58 58 58 58 58 58 58 59 58 57 56 62 62 59 56 56 57 57 57 56
60 59 58 58 58 59 59 60 60 60 60 62 57 61 61 58 56 54 55 54 56 63
60 60 59 59 59 59 59 59 58 59 60 59 59 58 60 60 54 55 55 55 55 57